AirNav   Pilot Hours Calculator
 
 1474 users online  

39P Strom Field Airport
Morton, Washington, USA

GOING TO MORTON?


FAA INFORMATION EFFECTIVE 05 DECEMBER 2019

Location

FAA Identifier: 39P
Lat/Long: 46-33-01.2990N 122-15-59.8530W
46-33.021650N 122-15.997550W
46.5503608,-122.2666258
(estimated)
Elevation: 941 ft. / 287 m (estimated)
Variation: 20E (1985)
Time zone: UTC -8 (UTC -7 during Daylight Saving Time)
Zip code: 98356

Airport Operations

Airport use: Open to the public
Activation date: 08/1964
Control tower: no
ARTCC: SEATTLE CENTER
FSS: SEATTLE FLIGHT SERVICE STATION
NOTAMs facility: SEA (NOTAM-D service available)
Attendance: UNATNDD
Wind indicator: lighted
Segmented circle: no
Lights: ACTVT MIRL RY 07/25 - CTAF.
Beacon: white-green (lighted land airport)
ACTVT ROTG BCN - CTAF.

Airport Communications

CTAF: 122.9

Nearby radio navigation aids

VOR radial/distance  VOR name  Freq  Var
OLMr115/36.3OLYMPIA VORTAC113.4019E
TCMr152/36.8MCCHORD VORTAC109.6015E

 
NDB name  Hdg/Dist  Freq  Var  ID
LACOMAS141/29.932816ELAC .-.. .- -.-.
KELSO031/35.725617ELSO .-.. ... ---

Airport Services

Parking: tiedowns
Airframe service: NONE
Powerplant service: NONE

Runway Information

Runway 7/25

Dimensions: 1810 x 40 ft. / 552 x 12 m
Surface: asphalt, in fair condition
Runway edge lights: medium intensity
Runway edge markings: MARKINGS FADED.
RUNWAY 7  RUNWAY 25
Latitude: 46-33.022283N46-33.021000N
Longitude: 122-16.213367W122-15.781733W
Traffic pattern: leftleft
Runway heading: 070 magnetic, 090 true250 magnetic, 270 true
Displaced threshold: 200 ft.no
Markings: basic, in poor conditionbasic, in poor condition
Obstructions: 50 ft. pline, 324 ft. from runway, 2:1 slope to clear
+3 FT FENCE AT 35 FT FM THLD AND 32 FT R; GUARD RAIL AND ROAD 98 FT FM THLD; 15 FT SIGN, 18 FT R, 65 FT FM THLD; TREE, 51 FT HIGH, 2 FT R, 120 FT FM THLD.
41 ft. trees, 1318 ft. from runway, 40 ft. both sides of centerline, 27:1 slope to clear
RWY 25 +2 FT ROAD AND GUARD RAIL AT 15 FT FM THLD, TREE, 15 FT HIGH, 49 FT R, 74 FT FM THLD, POLE, 8 FT HIGH, 79 FT R, 8 FT FM THLD.

Airport Ownership and Management from official FAA records

Ownership: Publicly-owned
Owner: CITY OF MORTON
PO BOX 1089
MORTON, WA 98356
Phone 360-496-6881
Manager: ANDERS PULLMAN
PO BOX 1089, PO BOX 1089
MORTON, WA 98356
Phone (360) 496-5210
PUB. WKS. SUP.

Airport Operational Statistics

Aircraft based on the field: 6
Single engine airplanes: 4
Ultralights: 2
    
Aircraft operations: avg 22/day *
82% transient general aviation
18% local general aviation
<1% military
* for 12-month period ending 31 December 2017

Additional Remarks

TREES NEAR RWY.
TREES, STREAM, AND BRUSH IN PRIM SFC.
DEER AND ELK ON & INVOF RWY.
DITCH PARL RWY ON EASTSIDE.
FOR CD CTC SEATTLE ARTCC AT 253-351-3694.

Instrument Procedures

There are no published instrument procedures at 39P.

Some nearby airports with instrument procedures:

KTDO - Ed Carlson Memorial Field - South Lewis Co Airport (23 nm W)
KCLS - Chehalis-Centralia Airport (30 nm W)
KPLU - Pierce County Airport - Thun Field (33 nm N)
KGRF - Gray Army Airfield (Joint Base Lewis-McChord) (34 nm N)
KOLM - Olympia Regional Airport (36 nm NW)
 
Loc | Ops | Rwys | IFR | FBO | Links
Com | Nav | Svcs | Stats | Notes
Area around 39P (Strom Field Airport)
 
Road maps at: MapQuest Bing Google
 
Aerial photo
WARNING: Photo may not be current or correct
Aerial photo of 39P (Strom Field Airport)
Photo taken 01-Sep-2012
looking west.

Do you have a better or more recent aerial photo of Strom Field Airport that you would like to share? If so, please send us your photo.

 
Sectional chart

 
Airport distance calculator
Flying to Strom Field Airport? Find the distance to fly.

From to 39P

Sunrise and sunset
Times for 07-Dec-2019
 Local
(UTC-8)
 Zulu
(UTC)
Morning civil twilight07:0615:06
Sunrise07:4015:40
Sunset16:2100:21
Evening civil twilight16:5600:56

Current date and time
Zulu (UTC)  07-Dec-2019 17:17:01
Local (UTC-8)  07-Dec-2019 09:17:01
 
METAR
KCLS 
30nm W 
071655Z AUTO 19006KT 10SM SCT027 BKN037 OVC043 08/08 A2974 RMK AO2
KPLU 
33nm N 
071655Z AUTO 00000KT 10SM SCT033 BKN039 OVC060 08/08 A2973 RMK AO2
KGRF 
33nm N 
071658Z 00000KT 10SM BKN032 OVC040 08/08 A2972 RMK AO2A SLP069 T00820082 $
KTCM 
35nm N 
071658Z AUTO 00000KT 10SM OVC031 08/08 A2973 RMK AO2 RAB11E21DZB21E27 SLP072 P0001 T00820082 RVRNO $
KOLM 
36nm NW 
071657Z 00000KT 3SM BR SCT004 OVC026 08/07 A2974 RMK AO2 T00780067
KKLS 
37nm SW 
071656Z AUTO 15011G16KT 10SM -RA OVC050 07/06 A2977 RMK AO2 RAE1559B18 SLP085 P0000 T00670056
TAF
KGRF 
33nm N 
071300Z 0713/0819 VRB06KT 8000 -SHRA BR SCT010 OVC030 640605 QNH2972INS BECMG 0718/0719 VRB06KT 6000 -RA BR OVC008 QNH2975INS TEMPO 0719/0801 540009 BECMG 0808/0809 VRB06KT 0800 FG OVC010 QNH2983INS TX09/0721Z TN08/0812Z
KTCM 
35nm N 
071300Z 0713/0819 VRB06KT 8000 -RA BR OVC040 620509 QNH2970INS BECMG 0716/0717 16006KT 9999 VCSH BKN020 OVC040 610509 QNH2971INS BECMG 0720/0721 19009KT 9000 -SHRA SCT008 BKN012 OVC020 610509 QNH2971INS BECMG 0801/0802 19006KT 8000 BR VCSH BKN007 BKN010 OVC015 610509 QNH2973INS BECMG 0807/0808 19006KT 9999 NSW BKN005 OVC015 620509 QNH2980INS TX10/0722Z TN06/0715Z
KOLM 
36nm NW 
071505Z 0715/0812 00000KT 3SM BR SCT004 OVC022 TEMPO 0715/0718 1SM BR BKN004 OVC020 FM071800 VRB03KT 5SM BR BKN012 OVC025 FM080200 00000KT 1SM BR OVC007 FM080500 23004KT 1/2SM FG OVC004
NOTAMs
Click for the latest NOTAMs
NOTAMs are issued by the DoD/FAA and will open in a separate window not controlled by AirNav.

 

 
 

Would you like to see your business listed on this page?

 If your business provides an interesting product or service to pilots, flight crews, aircraft, or users of the Strom Field Airport, you should consider listing it here.  To start the listing process, click on the button below
 
Add a business
 

Other Pages about Strom Field Airport

Update a link
 
Copyright © AirNav, LLC. All rights reserved. Privacy Policy  Contact